Regional Weather Roundup
Issued by NWS

Home | Current Version | Previous Version | Text Only | Print | Product List | Glossary Off
Versions: 1 2 3 4 5 6 7 8 9 10 11 12 13 14 15 16 17 18 19 20 21 22 23 24 25 26 27 28 29 30 31 32 33 34 35 36 37 38 39 40 41 42 43 44 45 46 47 48 49 50

000
ASUS43 KIND 241400
RWRIN

WEATHER ROUNDUP FOR INDIANA
NATIONAL WEATHER SERVICE INDIANAPOLIS IN
1000 AM EDT TUE APR 24 2018

NOTE: "FAIR" INDICATES FEW OR NO CLOUDS BELOW 12,000 FEET WITH NO
SIGNIFICANT WEATHER AND/OR OBSTRUCTIONS TO VISIBILITY.

* - STATION DOES NOT REPORT WEATHER SUCH AS PRECIPITATION OR FOG.

+ - STATION NOT QUALITY CONTROLLED BY THE NATIONAL WEATHER SERVICE.
    USE DATA WITH CAUTION...ESPECIALLY DEWPOINT AND RELATIVE
    HUMIDITY OBSERVATIONS.

INZ001>003-010>013-019-020-241500-
NORTHWEST INDIANA

CITY           SKY/WX    TMP DP  RH WIND       PRES   REMARKS
GARY /AIRPORT/ PTSUNNY   50  45  81 CALM      30.07S
KNOX *+        CLOUDY    54  50  87 NE6       30.04F
MONTICELLO +   CLOUDY    54  50  86 E7        30.01F
VALPARAISO     CLOUDY    56  51  84 NE10      30.05S

$$

LMZ046-743>745-241500-
SOUTHERN LAKE MICHIGAN

STATION/POSITION TIME  TEMP WIND        PRES
                       AIR  DIR/SP/G
                 (UTC) (F)  (DEG/KT/KT) (MB)
BURNS HARBOR     1340   43   CALM  /  1 1018.6S
MICHIGAN CITY    1340   44   50/  7/  7   N/A

$$

INZ004-005-014>016-021>024-241500-
NORTH CENTRAL INDIANA

CITY           SKY/WX    TMP DP  RH WIND       PRES   REMARKS
ELKHART        CLOUDY    55  48  76 E8        30.05S
GOSHEN         CLOUDY    55  49  80 E9        30.04F
ROCHESTER +    CLOUDY    55  50  82 E8        30.04S
SOUTH BEND     CLOUDY    53  48  83 E7        30.07S
WARSAW +       CLOUDY    54  48  82 E8        30.04S

$$

INZ006>009-017-018-025>027-241500-
NORTHEAST INDIANA

CITY           SKY/WX    TMP DP  RH WIND       PRES   REMARKS
ANGOLA *+      CLOUDY    55  48  76 SE14      30.05S
FORT WAYNE     PTSUNNY   56  51  84 E15       30.03F

$$

INZ028-029-035-036-043>045-051>053-241500-
WEST CENTRAL INDIANA

CITY           SKY/WX    TMP DP  RH WIND       PRES   REMARKS
LAFAYETTE      CLOUDY    54  50  86 NE10      30.01S
TERRE HAUTE    CLOUDY    54  51  90 NE7       29.98S

$$

INZ030>032-037>040-046>048-054>057-064-065-241500-
CENTRAL INDIANA

CITY           SKY/WX    TMP DP  RH WIND       PRES   REMARKS
ANDERSON       CLOUDY    52  50  93 E12       30.00F
COLUMBUS       CLOUDY    52 N/A N/A NE5       29.97S
GREENWOOD *+   CLOUDY    51  50  95 E7        29.98S
INDIANAPOLIS   CLOUDY    53  51  93 NE7       29.98S
-EAGLE CREEK   CLOUDY    54  50  86 NE7       29.98S
KOKOMO +       CLOUDY    53  50  89 E8        30.01F
MT COMFORT *+  CLOUDY    52  52 100 E8        29.99S
SHELBYVILLE    LGT RAIN  54  50  86 E10       29.96S
ZIONSVILLE +   CLOUDY    52  51  97 E6        29.99F

$$

INZ033-034-041-042-049-050-058-059-241500-
EAST CENTRAL INDIANA

CITY           SKY/WX    TMP DP  RH WIND       PRES   REMARKS
MUNCIE         CLOUDY    55  50  83 E8        29.99F

$$

INZ060-061-067>069-081>083-085>088-241500-
SOUTHWEST INDIANA

CITY           SKY/WX    TMP DP  RH WIND       PRES   REMARKS
EVANSVILLE     LGT RAIN  54  54 100 N6        29.96R FOG
HUNTINGBURG *+ LGT RAIN  54  53  97 N5        29.95S FOG

$$

INZ062-063-066-070>080-084-089>092-241500-
SOUTH CENTRAL AND SOUTHEAST INDIANA

CITY           SKY/WX    TMP DP  RH WIND       PRES   REMARKS
BLOOMINGTON    LGT RAIN  53  51  93 NE7       29.96S FOG

$$




USA.gov is the U.S. government's official web portal to all federal, state and local government web resources and services.